Flag for U.S.A. Weather past 2 weeks in San Luis Obispo, California, U.S.A.

Now
80 °F

Sunny.


Feels Like: 79 °F
Forecast: 50 / 79 °F
Wind: 18 mph from Northwest

Location: San Luis Obispo County-Mc Chesney Field

Current Time: Oct 22, 2014 at 4:09:46 PM

Latest Report: Oct 22, 2014 at 2:56 PM


Visibility: 10 mi

Pressure: 29.91 "Hg

Humidity: 27%

Dew point: 43 °F

Location of San Luis ObispoLocation

Historic Weather in San Luis Obispo — Graph

°F

San Luis Obispo temperature yesterday

Maximum temperature yesterday: 79 °F (at 1:56 PM)
Minimum temperature yesterday: 61 °F (at 4:56 AM)
Average temperature yesterday: 66 °F

Past Weeks' High & Low Weather Summary

 TemperatureHumidityPressure
High95 °F (Oct 12, 2:56 PM)100% (Oct 8, 2:56 AM)30.03 "Hg (Oct 8, 2:56 AM)
Low49 °F (Oct 17, 6:56 AM)13% (Oct 12, 2:56 PM)29.81 "Hg (Oct 8, 4:56 PM)
Average64 °F73%29.93 "Hg
* Reported Oct 7 2:56 PM — Oct 22 2:56 PM, San Luis Obispo, Weather by CustomWeather, © 2014

Note: Actual official high and low records may vary slightly from our data, if they occured in-between our weather recording intervals... More about our weather records

Advertising

San Luis Obispo weather history for previous 24 hours

 ConditionsComfort  
Time TempWeatherWind HumidityBarometerVisibility
2:56 PM
Oct 22
80 °FSunny.18 mph27%29.91 "Hg10 mi
1:56 PM78 °FSunny.22 mph32%29.93 "Hg10 mi
12:56 PM80 °FSunny.20 mph26%29.95 "Hg10 mi
11:56 AM77 °FSunny.8 mph28%29.98 "Hg10 mi
10:56 AM74 °FSunny.No wind28%29.98 "Hg10 mi
9:56 AM70 °FSunny.3 mph34%29.99 "Hg10 mi
8:56 AM66 °FSunny.5 mph40%29.98 "Hg10 mi
7:56 AM63 °FClear.3 mph43%29.97 "Hg10 mi
6:56 AM63 °FClear.3 mph43%29.96 "Hg10 mi
5:56 AM64 °FClear.6 mph40%29.94 "Hg10 mi
4:56 AM63 °FClear.3 mph41%29.93 "Hg10 mi
3:56 AM65 °FClear.7 mph39%29.94 "Hg10 mi
2:56 AM62 °FClear.6 mph39%29.94 "Hg10 mi
1:56 AM62 °FClear.6 mph41%29.94 "Hg10 mi
12:56 AM65 °FClear.5 mph37%29.94 "Hg10 mi
11:56 PM
Oct 21
67 °FClear.8 mph37%29.96 "Hg10 mi
10:56 PM62 °FClear.3 mph52%29.95 "Hg10 mi
9:56 PM61 °FClear.No wind65%29.96 "Hg10 mi
8:56 PM61 °FClear.No wind72%29.94 "Hg10 mi
7:56 PM61 °FClear.12 mph75%29.93 "Hg10 mi
6:56 PM63 °FSunny.15 mph68%29.93 "Hg10 mi
5:56 PM65 °FSunny.14 mph59%29.93 "Hg10 mi
4:56 PM71 °FSunny.18 mph36%29.91 "Hg10 mi
Weather by CustomWeather, © 2014

See weather overviewHow to use our weather pages